period_start,C,m1,H,J0,J1,J2,J3,J4,J5,JA,JB,JC,JD,JJ,JK,JN,#
2018-07-22 00:03:59,0.02,1.21,0.00,24.17,27.91,30.88,13.88,46.59,1013.20,2024.78,2923.97,2769.58,3156.85,599.95,591.62,56.71,0000 0000 0000 0000 000000
2018-07-22 00:09:00,0.02,1.21,0.00,24.18,27.92,30.89,13.81,46.62,1013.14,2024.67,2923.81,2769.15,3156.39,599.95,591.60,56.76,0000 0000 0000 0000 000000
2018-07-22 00:14:02,-0.02,1.21,0.00,24.20,27.92,30.89,13.85,46.56,1013.09,2024.39,2923.42,2769.04,3156.08,600.23,591.83,56.81,0000 0000 0000 0000 000000
2018-07-22 00:19:03,0.00,1.21,0.00,24.21,27.92,30.90,13.85,46.62,1012.80,2024.21,2923.32,2769.03,3156.03,600.04,591.41,56.86,0000 0000 0000 0000 000000
2018-07-22 00:24:04,0.01,1.21,0.00,24.22,27.92,30.90,13.80,46.49,1012.73,2024.21,2923.08,2769.01,3156.01,599.69,591.13,56.91,0000 0000 0000 0000 000000
2018-07-22 00:29:05,-0.01,1.21,0.00,24.22,27.94,30.89,13.85,46.61,1012.71,2024.20,2923.03,2769.00,3156.00,600.41,591.63,56.96,0000 0000 0000 0000 000000
2018-07-22 00:34:06,-0.01,1.21,0.00,24.24,27.95,30.89,13.87,46.88,1012.71,2024.04,2923.01,2769.00,3156.00,600.53,591.91,57.01,0000 0000 0000 0000 000000
2018-07-22 00:39:08,0.00,1.20,0.00,24.24,27.95,30.90,13.80,46.67,1012.71,2024.06,2923.00,2769.00,3155.99,599.90,591.04,57.06,0000 0000 0000 0000 000000
2018-07-22 00:44:09,0.00,1.21,0.00,24.25,27.95,30.90,13.85,46.79,1012.65,2024.06,2923.00,2769.00,3155.99,599.55,590.94,57.11,0000 0000 0000 0000 000000
2018-07-22 00:49:10,-0.00,1.20,0.00,24.26,27.95,30.88,13.80,46.74,1012.33,2024.04,2923.00,2768.99,3155.98,600.31,591.30,57.17,0000 0000 0000 0000 000000
2018-07-22 00:54:12,0.00,1.20,0.00,24.27,27.97,30.90,13.90,46.77,1012.26,2024.01,2922.97,2768.99,3155.89,600.27,591.05,57.22,0000 0000 0000 0000 000000
2018-07-22 00:59:13,0.00,1.20,0.00,24.27,27.97,30.91,13.80,46.61,1012.23,2024.00,2922.96,2768.98,3155.86,599.98,590.85,57.27,0000 0000 0000 0000 000000
2018-07-22 01:04:14,0.00,1.21,0.00,24.28,27.97,30.88,13.76,46.70,1012.23,2024.01,2922.85,2768.96,3155.68,599.80,590.80,57.32,0000 0000 0000 0000 000000
2018-07-22 01:09:15,0.01,1.21,0.00,24.30,27.98,30.91,13.86,46.76,1012.22,2024.01,2922.69,2768.97,3155.60,600.42,591.29,57.37,0000 0000 0000 0000 000000
2018-07-22 01:14:16,0.01,1.21,0.00,24.31,28.00,30.86,13.78,46.74,1012.16,2024.03,2922.41,2768.96,3155.42,599.88,590.55,57.42,0000 0000 0000 0000 000000
2018-07-22 01:19:17,0.01,1.21,0.00,24.32,28.00,30.90,13.80,46.66,1011.92,2024.01,2922.16,2768.84,3155.09,599.88,590.52,57.47,0000 0000 0000 0000 000000
2018-07-22 01:24:19,0.02,1.21,0.00,24.34,28.00,30.87,13.78,46.58,1011.93,2024.00,2922.02,2768.30,3155.02,599.90,590.51,57.52,0000 0000 0000 0000 000000
2018-07-22 01:29:20,0.00,1.21,0.00,24.35,28.02,30.87,13.84,46.34,1012.02,2024.00,2922.01,2768.16,3155.00,599.67,590.33,57.57,0000 0000 0000 0000 000000
2018-07-22 01:34:21,0.00,1.21,0.00,24.36,28.02,30.86,13.81,46.34,1011.92,2024.00,2921.99,2768.07,3155.00,600.03,590.62,57.62,0000 0000 0000 0000 000000
2018-07-22 01:39:23,0.00,1.21,0.00,24.37,28.03,30.91,13.83,46.42,1011.81,2024.00,2921.99,2768.04,3155.00,600.19,590.64,57.67,0000 0000 0000 0000 000000
2018-07-22 01:44:24,0.00,1.21,0.00,24.39,28.05,30.90,13.82,46.67,1011.78,2024.00,2921.97,2768.01,3155.00,599.79,590.29,57.72,0000 0000 0000 0000 000000
2018-07-22 01:49:25,0.00,1.21,0.00,24.40,28.05,30.87,13.75,46.55,1011.75,2024.00,2921.90,2768.00,3154.89,600.05,590.43,57.77,0000 0000 0000 0000 000000
2018-07-22 01:54:26,0.01,1.21,0.00,24.42,28.07,30.91,13.84,46.52,1011.74,2024.00,2921.56,2768.00,3154.67,600.00,590.32,57.82,0000 0000 0000 0000 000000
2018-07-22 01:59:27,0.02,1.21,0.00,24.41,28.07,30.89,13.79,46.49,1011.73,2024.00,2921.06,2767.99,3154.12,599.93,590.32,57.87,0000 0000 0000 0000 000000
2018-07-22 02:04:28,0.00,1.21,0.00,24.44,28.09,30.92,13.81,46.51,1011.73,2024.00,2921.02,2767.97,3154.02,599.91,590.31,57.92,0000 0000 0000 0000 000000
2018-07-22 02:09:30,0.00,1.21,0.00,24.46,28.10,30.96,13.81,46.56,1011.73,2023.99,2921.00,2767.95,3154.00,600.32,590.57,57.97,0000 0000 0000 0000 000000
2018-07-22 02:14:31,0.01,1.21,0.00,24.47,28.11,30.89,13.77,46.65,1011.53,2023.99,2920.99,2767.66,3154.00,599.74,589.84,58.02,0000 0000 0000 0000 000000
2018-07-22 02:19:32,0.01,1.21,0.00,24.50,28.12,30.90,13.83,46.70,1011.40,2023.99,2920.97,2767.26,3153.99,600.23,590.21,58.08,0000 0000 0000 0000 000000
2018-07-22 02:24:34,0.00,1.21,0.00,24.52,28.13,30.88,13.78,46.67,1011.50,2023.99,2920.88,2767.05,3153.96,600.08,590.09,58.13,0000 0000 0000 0000 000000
2018-07-22 02:29:35,0.02,1.21,0.00,24.54,28.15,30.89,13.74,46.51,1011.44,2023.97,2920.30,2767.00,3153.63,599.70,589.63,58.18,0000 0000 0000 0000 000000
2018-07-22 02:34:36,0.01,1.21,0.00,24.55,28.16,30.93,13.78,46.44,1011.31,2023.95,2920.03,2767.00,3153.16,600.05,589.89,58.23,0000 0000 0000 0000 000000
2018-07-22 02:39:37,-0.03,1.21,0.00,24.58,28.17,30.98,13.84,46.52,1011.27,2023.75,2920.01,2766.99,3153.03,600.31,590.06,58.28,0000 0000 0000 0000 000000
2018-07-22 02:44:38,-0.03,1.21,0.00,24.59,28.18,30.94,13.78,46.52,1011.25,2023.29,2920.00,2766.96,3153.00,600.02,589.86,58.33,0000 0000 0000 0000 000000
2018-07-22 02:49:40,-0.01,1.21,0.00,24.60,28.20,30.97,13.72,46.44,1011.25,2023.23,2919.99,2766.92,3153.00,600.18,589.74,58.38,0000 0000 0000 0000 000000
2018-07-22 02:54:41,0.00,1.21,0.00,24.62,28.21,30.94,13.78,46.48,1011.25,2023.12,2919.97,2766.74,3152.98,599.92,589.66,58.43,0000 0000 0000 0000 000000
2018-07-22 02:59:42,0.03,1.21,0.00,24.64,28.22,30.90,13.75,46.45,1011.25,2023.04,2919.54,2766.18,3152.76,599.81,589.37,58.48,0000 0000 0000 0000 000000
2018-07-22 03:04:43,0.01,1.21,0.00,24.65,28.24,30.90,13.73,46.38,1011.25,2023.02,2919.19,2766.05,3152.44,599.90,589.50,58.53,0000 0000 0000 0000 000000
2018-07-22 03:09:45,0.00,1.21,0.00,24.65,28.25,30.89,13.73,46.46,1011.25,2023.01,2919.04,2766.01,3152.08,599.88,589.49,58.58,0000 0000 0000 0000 000000
2018-07-22 03:14:46,0.00,1.21,0.00,24.68,28.27,30.91,13.71,46.39,1011.11,2023.01,2919.00,2766.00,3152.02,599.84,589.32,58.63,0000 0000 0000 0000 000000
2018-07-22 03:19:48,0.00,1.21,0.00,24.71,28.29,30.92,13.81,46.30,1010.78,2023.00,2919.00,2765.99,3152.00,600.18,589.36,58.68,0000 0000 0000 0000 000000
2018-07-22 03:24:49,0.00,1.21,0.00,24.72,28.30,30.93,13.79,46.27,1010.77,2023.00,2918.96,2765.98,3152.00,600.10,589.32,58.73,0000 0000 0000 0000 000000
2018-07-22 03:29:50,0.01,1.21,0.00,24.74,28.32,30.94,13.68,46.29,1010.77,2023.00,2918.76,2765.94,3151.95,599.90,589.09,58.78,0000 0000 0000 0000 000000
2018-07-22 03:34:52,0.04,1.21,0.00,24.77,28.33,30.94,13.72,46.29,1010.78,2022.98,2918.10,2765.36,3151.40,599.93,589.01,58.83,0000 0000 0000 0000 000000
2018-07-22 03:39:53,0.01,1.21,0.00,24.79,28.35,30.95,13.73,46.39,1010.76,2022.98,2918.01,2765.07,3151.05,599.96,589.02,58.88,0000 0000 0000 0000 000000
2018-07-22 03:44:54,0.00,1.22,0.00,24.82,28.37,30.96,13.81,46.33,1010.68,2022.98,2918.00,2765.01,3151.02,599.79,588.72,58.93,0000 0000 0000 0000 000000
2018-07-22 03:49:55,0.00,1.22,0.00,24.86,28.39,31.00,13.68,46.46,1010.36,2022.98,2917.98,2765.00,3151.00,599.81,588.53,58.98,0000 0000 0000 0000 000000
2018-07-22 03:54:56,0.00,1.22,0.00,24.89,28.41,31.02,13.74,46.43,1010.31,2022.95,2917.75,2765.00,3150.99,599.75,588.34,59.04,0000 0000 0000 0000 000000
2018-07-22 03:59:58,0.01,1.22,0.00,24.92,28.42,31.04,13.75,46.37,1010.28,2022.93,2917.10,2764.98,3150.84,599.89,588.41,59.09,0000 0000 0000 0000 000000
2018-07-22 04:04:59,-0.01,1.22,0.00,24.94,28.45,31.03,13.72,46.40,1010.28,2022.70,2917.02,2764.81,3150.29,599.96,588.44,59.14,0000 0000 0000 0000 000000
2018-07-22 04:10:01,-0.02,1.21,0.00,24.96,28.47,31.05,13.73,46.37,1010.27,2022.24,2916.99,2764.18,3150.02,600.03,588.41,59.19,0000 0000 0000 0000 000000
2018-07-22 04:15:02,0.00,1.21,0.00,24.97,28.49,31.06,13.72,46.32,1010.22,2022.09,2916.75,2764.01,3150.00,599.98,588.42,59.24,0000 0000 0000 0000 000000
2018-07-22 04:20:03,-0.00,1.21,0.00,25.01,28.51,31.10,13.73,46.42,1010.22,2022.04,2916.51,2764.00,3149.97,599.99,588.28,59.29,0000 0000 0000 0000 000000
2018-07-22 04:25:05,0.01,1.21,0.00,25.04,28.53,31.12,13.70,46.48,1010.02,2022.01,2916.14,2764.00,3149.61,600.06,588.19,59.34,0000 0000 0000 0000 000000
2018-07-22 04:30:06,0.01,1.22,0.00,25.07,28.56,31.13,13.71,46.33,1009.80,2022.00,2915.99,2763.96,3149.08,599.98,587.93,59.39,0000 0000 0000 0000 000000
2018-07-22 04:35:07,0.02,1.22,0.00,25.10,28.57,31.15,13.70,46.17,1009.78,2022.00,2915.98,2763.42,3149.00,600.02,587.87,59.44,0000 0000 0000 0000 000000
2018-07-22 04:40:08,0.00,1.22,0.00,25.12,28.60,31.16,13.67,46.26,1009.78,2022.00,2915.69,2763.03,3148.98,599.81,587.61,59.49,0000 0000 0000 0000 000000
2018-07-22 04:45:10,0.01,1.22,0.00,25.15,28.62,31.18,13.68,46.32,1009.78,2021.99,2915.20,2763.00,3148.90,600.05,587.82,59.54,0000 0000 0000 0000 000000
2018-07-22 04:50:11,0.01,1.22,0.00,25.16,28.65,31.20,13.69,46.17,1009.78,2021.98,2915.03,2763.00,3148.47,599.95,587.74,59.59,0000 0000 0000 0000 000000
2018-07-22 04:55:12,0.01,1.22,0.00,25.18,28.67,31.23,13.76,46.27,1009.76,2021.97,2915.00,2762.98,3148.03,599.93,587.59,59.64,0000 0000 0000 0000 000000
2018-07-22 05:00:13,0.01,0.89,0.00,25.20,28.70,31.27,12.13,41.25,1009.67,2022.15,3052.40,2849.02,3256.47,533.90,522.93,0.01,0000 0000 0000 0000 000002
2018-07-22 05:05:14,0.05,0.00,0.00,25.22,28.72,31.28,13.73,46.76,1009.50,2022.87,3424.72,3084.33,3554.39,600.04,587.55,0.02,0000 0000 0000 0000 000000
2018-07-22 05:10:16,0.05,0.00,0.00,25.24,28.74,31.30,13.71,46.74,1009.56,2022.61,3422.59,3083.77,3553.05,599.73,587.25,0.07,0000 0000 0000 0000 000000
2018-07-22 05:15:17,0.04,0.00,0.00,25.28,28.76,31.33,13.77,46.78,1009.38,2022.15,3421.66,3083.08,3552.08,600.38,587.60,0.12,0000 0000 0000 0000 000000
2018-07-22 05:20:18,0.03,0.00,0.00,25.31,28.78,31.36,13.69,47.00,1009.39,2022.02,3420.98,3082.99,3551.32,599.68,587.02,0.17,0000 0000 0000 0000 000000
2018-07-22 05:25:20,0.01,0.00,0.00,25.34,28.81,31.37,13.75,47.04,1009.44,2022.00,3420.30,3082.50,3550.60,599.75,587.01,0.22,0000 0000 0000 0000 000000
2018-07-22 05:30:21,0.02,0.00,0.00,25.36,28.83,31.39,13.68,46.98,1009.31,2022.00,3419.98,3082.04,3550.01,599.92,586.99,0.27,0000 0000 0000 0000 000000
2018-07-22 05:35:22,0.01,0.00,0.00,25.39,28.85,31.42,13.71,47.12,1009.30,2021.99,3419.47,3082.00,3549.65,599.93,586.93,0.32,0000 0000 0000 0000 000000
2018-07-22 05:40:23,0.01,0.00,0.00,25.42,28.88,31.45,13.65,47.08,1009.29,2021.98,3419.00,3081.85,3549.02,599.85,586.78,0.37,0000 0000 0000 0000 000000
2018-07-22 05:45:24,0.01,0.00,0.00,25.46,28.90,31.48,13.75,47.12,1009.29,2021.93,3418.91,3081.32,3548.85,599.52,586.40,0.42,0000 0000 0000 0000 000000
2018-07-22 05:50:25,-0.00,0.00,0.00,25.48,28.92,31.49,13.74,47.08,1009.29,2021.71,3418.30,3081.04,3548.13,600.49,587.23,0.48,0000 0000 0000 0000 000000
2018-07-22 05:55:26,-0.04,0.00,0.00,25.51,28.95,31.53,13.69,47.00,1009.29,2021.22,3417.99,3081.00,3547.94,599.83,586.67,0.53,0000 0000 0000 0000 000000
2018-07-22 06:00:27,0.04,0.00,0.00,25.54,28.98,31.55,13.69,47.11,1009.14,2021.03,3417.44,3080.39,3547.15,600.31,586.97,0.58,0000 0000 0000 0000 000000
2018-07-22 06:05:29,0.01,0.00,0.00,25.56,29.00,31.57,13.65,46.98,1008.85,2021.00,3416.98,3080.00,3546.73,599.83,586.18,0.63,0000 0000 0000 0000 000000
2018-07-22 06:10:30,0.02,0.00,0.00,25.60,29.03,31.59,13.74,47.15,1008.82,2021.00,3416.63,3079.89,3546.02,600.19,586.42,0.68,0000 0000 0000 0000 000000
2018-07-22 06:15:31,0.03,0.01,0.00,25.63,29.06,31.62,13.77,47.06,1008.82,2021.00,3416.04,3079.29,3545.73,600.14,586.35,0.73,0000 0000 0000 0000 000000
2018-07-22 06:20:32,0.01,0.01,0.00,25.66,29.08,31.64,13.81,47.12,1008.80,2020.98,3415.99,3079.01,3545.05,600.15,586.40,0.78,0000 0000 0000 0000 000000
2018-07-22 06:25:34,0.00,0.01,0.00,25.70,29.11,31.67,13.68,46.98,1008.80,2020.97,3415.86,3079.00,3545.00,599.87,585.96,0.83,0000 0000 0000 0000 000000
2018-07-22 06:30:35,0.00,0.01,0.00,25.71,29.13,31.69,13.67,47.09,1008.79,2020.85,3415.11,3078.90,3544.64,600.00,586.02,0.88,0000 0000 0000 0000 000000
2018-07-22 06:35:36,-0.01,0.01,0.00,25.73,29.16,31.72,13.60,47.03,1008.61,2020.39,3415.00,3078.29,3544.03,599.86,585.90,0.93,0000 0000 0000 0000 000000
2018-07-22 06:40:37,-0.02,0.01,0.00,25.77,29.19,31.74,13.62,47.08,1008.34,2020.11,3414.87,3078.02,3543.99,600.01,585.66,0.98,0000 0000 0000 0000 000000
2018-07-22 06:45:38,0.02,0.01,0.00,25.81,29.22,31.77,13.77,47.09,1008.32,2020.06,3414.09,3078.00,3543.57,600.28,585.93,1.03,0000 0000 0000 0000 000000
2018-07-22 06:50:39,0.01,0.01,0.00,25.86,29.25,31.81,13.61,46.94,1008.32,2020.01,3413.99,3077.75,3543.03,599.92,585.44,1.08,0000 0000 0000 0000 000000
2018-07-22 06:55:40,0.02,0.01,0.00,25.91,29.29,31.83,13.64,47.12,1008.33,2020.00,3413.74,3077.08,3542.78,599.77,585.23,1.13,0000 0000 0000 0000 000000
2018-07-22 07:00:42,0.02,0.01,0.00,25.95,29.32,31.86,13.62,47.04,1008.32,2019.99,3413.21,3076.94,3542.11,599.66,585.05,1.18,0000 0000 0000 0000 000000
2018-07-22 07:05:43,0.03,0.01,0.00,25.98,29.35,31.89,13.70,47.19,1008.32,2019.95,3412.87,3076.14,3541.35,600.00,585.27,1.23,0000 0000 0000 0000 000000
2018-07-22 07:10:45,-0.00,0.01,0.00,26.01,29.38,31.91,13.65,47.12,1008.32,2019.84,3412.24,3076.00,3541.01,600.12,585.26,1.28,0000 0000 0000 0000 000000
2018-07-22 07:15:46,-0.05,0.01,0.00,26.04,29.41,31.95,13.61,47.13,1008.31,2019.21,3411.98,3075.90,3540.67,599.93,585.11,1.33,0000 0000 0000 0000 000000
2018-07-22 07:20:47,0.03,0.01,0.00,26.06,29.44,31.99,13.71,47.16,1008.30,2019.05,3411.49,3075.29,3540.07,600.02,585.14,1.38,0000 0000 0000 0000 000000
2018-07-22 07:25:49,0.00,0.01,0.00,26.09,29.47,32.02,13.55,47.12,1008.30,2019.00,3411.02,3075.01,3539.98,600.04,585.04,1.43,0000 0000 0000 0000 000000
2018-07-22 07:30:50,0.01,0.01,0.00,26.12,29.50,32.03,13.58,47.09,1008.17,2019.00,3410.91,3074.99,3539.47,599.93,584.70,1.48,0000 0000 0000 0000 000000
2018-07-22 07:35:52,0.02,0.01,0.00,26.12,29.53,32.07,13.64,47.12,1008.00,2018.99,3410.23,3074.71,3539.01,599.82,584.72,1.53,0000 0000 0000 0000 000000
2018-07-22 07:40:53,0.01,0.01,0.00,26.15,29.56,32.10,13.65,47.11,1008.05,2018.91,3410.01,3074.11,3538.85,600.02,584.78,1.58,0000 0000 0000 0000 000000
2018-07-22 07:45:54,-0.04,0.01,0.00,26.18,29.59,32.12,13.71,47.17,1008.02,2018.46,3409.83,3074.00,3538.13,599.98,584.72,1.63,0000 0000 0000 0000 000000
2018-07-22 07:50:55,-0.01,0.01,0.00,26.21,29.61,32.15,13.61,47.13,1007.88,2018.19,3409.22,3073.94,3538.00,599.74,584.35,1.68,0000 0000 0000 0000 000000
2018-07-22 07:55:56,0.02,0.01,0.00,26.23,29.64,32.17,13.60,47.09,1007.85,2018.02,3409.02,3073.36,3537.75,599.73,584.29,1.73,0000 0000 0000 0000 000000
2018-07-22 08:00:58,0.01,0.01,0.00,26.26,29.67,32.21,13.58,47.14,1007.85,2018.00,3408.87,3073.03,3537.14,599.85,584.22,1.78,0000 0000 0000 0000 000000
2018-07-22 08:05:59,0.01,0.01,0.00,26.28,29.70,32.23,13.71,47.08,1007.85,2018.00,3408.13,3072.97,3536.95,599.98,584.33,1.83,0000 0000 0000 0000 000000
2018-07-22 08:11:01,0.02,0.01,0.00,26.30,29.72,32.26,13.70,47.08,1007.94,2018.00,3407.99,3072.55,3536.41,600.32,584.71,1.88,0000 0000 0000 0000 000000
2018-07-22 08:16:02,0.02,0.01,0.00,26.31,29.75,32.27,13.70,47.14,1008.02,2017.96,3407.42,3072.04,3536.01,600.19,584.61,1.93,0000 0000 0000 0000 000000
2018-07-22 08:21:03,0.00,0.02,0.00,26.35,29.77,32.32,13.52,47.04,1008.17,2017.96,3407.02,3071.99,3535.93,599.88,584.30,1.98,0000 0000 0000 0000 000000
2018-07-22 08:26:04,0.03,0.02,0.00,26.35,29.80,32.36,13.69,47.23,1007.95,2017.93,3406.49,3071.58,3535.24,600.19,584.53,2.03,0000 0000 0000 0000 000000
2018-07-22 08:31:05,0.01,0.02,0.00,26.38,29.82,32.37,13.62,47.05,1007.86,2017.86,3406.00,3071.03,3534.85,599.97,584.16,2.08,0000 0000 0000 0000 000000
2018-07-22 08:36:07,-0.02,0.02,0.00,26.41,29.85,32.40,13.65,47.13,1007.86,2017.37,3405.35,3070.83,3534.08,600.24,584.43,2.13,0000 0000 0000 0000 000000
2018-07-22 08:41:08,0.01,0.02,0.00,26.42,29.87,32.44,13.61,47.03,1007.84,2017.09,3404.95,3070.09,3533.72,600.04,584.17,2.18,0000 0000 0000 0000 000000
2018-07-22 08:46:10,0.01,0.02,0.00,26.45,29.90,32.47,13.70,47.13,1007.83,2017.00,3404.12,3069.98,3533.03,600.16,584.21,2.23,0000 0000 0000 0000 000000
2018-07-22 08:51:11,0.02,0.02,0.00,26.48,29.93,32.49,13.62,47.16,1007.83,2017.00,3403.90,3069.57,3532.72,599.99,584.09,2.28,0000 0000 0000 0000 000000
2018-07-22 08:56:12,0.03,0.02,0.00,26.50,29.95,32.51,13.65,47.09,1007.83,2017.00,3403.15,3069.03,3532.06,599.97,584.14,2.33,0000 0000 0000 0000 000000
2018-07-22 09:01:13,0.00,0.02,0.00,26.52,29.98,32.54,13.57,47.05,1007.83,2016.98,3403.00,3068.99,3532.00,600.11,583.98,2.38,0000 0000 0000 0000 000000
2018-07-22 09:06:14,0.03,0.02,0.00,26.53,30.00,32.57,13.66,47.08,1007.82,2016.97,3402.35,3068.70,3531.46,600.09,584.08,2.43,0000 0000 0000 0000 000000
2018-07-22 09:11:16,0.06,0.03,0.00,26.55,30.03,32.59,13.63,47.15,1007.78,2016.92,3400.97,3067.60,3530.39,599.77,583.67,2.48,0000 0000 0000 0000 000000
2018-07-22 09:16:17,-0.01,0.03,0.00,26.57,30.06,32.63,13.56,46.98,1007.64,2016.55,3400.03,3067.00,3529.42,599.57,583.28,2.53,0000 0000 0000 0000 000000
2018-07-22 09:21:19,-0.00,0.03,0.00,26.60,30.08,32.64,13.63,47.02,1007.39,2016.18,3399.64,3066.77,3529.00,599.97,583.46,2.58,0000 0000 0000 0000 000000
2018-07-22 09:26:20,0.02,0.03,0.00,26.61,30.11,32.67,13.58,47.02,1007.35,2016.04,3398.85,3066.06,3528.41,599.73,583.22,2.63,0000 0000 0000 0000 000000
2018-07-22 09:31:21,0.03,0.03,0.00,26.64,30.13,32.70,13.59,47.07,1007.34,2016.01,3398.01,3065.64,3527.92,599.62,583.22,2.68,0000 0000 0000 0000 000000
2018-07-22 09:36:22,0.03,0.03,0.00,26.65,30.16,32.72,13.55,47.08,1007.35,2016.01,3397.09,3065.02,3527.17,599.90,583.27,2.73,0000 0000 0000 0000 000000
2018-07-22 09:41:24,0.03,0.03,0.00,26.67,30.18,32.75,13.60,47.19,1007.35,2016.00,3396.63,3064.69,3526.71,600.05,583.36,2.78,0000 0000 0000 0000 000000
2018-07-22 09:46:25,0.09,0.03,0.00,26.68,30.21,32.78,13.62,47.20,1007.35,2016.00,3395.05,3063.29,3525.16,599.92,583.24,2.84,0000 0000 0000 0000 000000
2018-07-22 09:51:26,0.15,0.04,0.00,26.70,30.23,32.80,13.59,47.09,1007.35,2016.00,3392.34,3060.71,3522.21,599.90,583.21,2.89,0000 0000 0000 0000 000000
2018-07-22 09:56:28,0.15,0.05,0.00,26.73,30.25,32.82,13.64,47.18,1007.36,2015.97,3389.72,3058.21,3519.41,600.21,583.56,2.94,0000 0000 0000 0000 000000
2018-07-22 10:01:29,0.11,0.06,0.00,26.75,30.27,32.85,13.61,47.03,1007.36,2015.91,3387.38,3055.86,3516.84,599.79,582.94,2.99,0000 0000 0000 0000 000000
2018-07-22 10:06:31,0.07,0.06,0.00,26.76,30.30,32.87,13.63,47.17,1007.35,2015.75,3385.81,3054.19,3515.00,599.68,582.88,3.04,0000 0000 0000 0000 000000
2018-07-22 10:11:32,0.07,0.06,0.00,26.77,30.32,32.88,13.60,47.08,1007.34,2015.57,3384.60,3052.67,3513.35,600.19,583.46,3.09,0000 0000 0000 0000 000000
2018-07-22 10:16:33,0.02,0.07,0.00,26.80,30.34,32.91,13.71,47.13,1007.34,2015.14,3383.29,3051.47,3512.07,600.43,583.44,3.14,0000 0000 0000 0000 000000
2018-07-22 10:21:34,0.04,0.07,0.00,26.81,30.36,32.95,13.59,46.96,1007.34,2015.03,3382.55,3050.73,3511.10,600.17,583.14,3.19,0000 0000 0000 0000 000000
2018-07-22 10:26:35,0.10,0.07,0.00,26.82,30.37,32.97,13.62,47.01,1007.34,2015.02,3381.14,3049.13,3509.27,600.32,583.32,3.24,0000 0000 0000 0000 000000
2018-07-22 10:31:36,0.13,0.08,0.00,26.84,30.40,32.98,13.56,47.09,1007.34,2015.00,3379.07,3046.80,3506.63,599.65,582.74,3.29,0000 0000 0000 0000 000000
2018-07-22 10:36:38,0.13,0.08,0.00,26.85,30.41,33.02,13.63,47.08,1007.34,2014.98,3376.93,3044.58,3504.19,599.95,582.93,3.34,0000 0000 0000 0000 000000
2018-07-22 10:41:39,0.06,0.09,0.00,26.86,30.43,33.04,13.62,46.96,1007.33,2014.98,3375.71,3043.09,3502.54,600.03,583.05,3.39,0000 0000 0000 0000 000000
2018-07-22 10:46:40,0.03,0.09,0.00,26.88,30.45,33.05,13.63,47.02,1007.32,2014.96,3375.00,3042.49,3501.74,600.22,583.18,3.44,0000 0000 0000 0000 000000
2018-07-22 10:51:41,0.06,0.09,0.00,26.89,30.47,33.07,13.59,46.83,1007.34,2014.93,3373.99,3041.49,3500.51,600.00,582.95,3.49,0000 0000 0000 0000 000000
2018-07-22 10:56:43,0.10,0.10,0.00,26.90,30.48,33.11,13.62,46.88,1007.34,2014.65,3371.44,3039.10,3497.87,600.24,583.10,3.54,0000 0000 0000 0000 000000
2018-07-22 11:01:44,0.13,0.10,0.00,26.93,30.50,33.13,13.65,47.05,1007.34,2014.28,3369.11,3036.71,3495.24,600.20,583.26,3.59,0000 0000 0000 0000 000000
2018-07-22 11:06:45,0.08,0.11,0.00,26.95,30.52,33.15,13.59,46.97,1007.34,2014.08,3367.04,3034.82,3493.04,600.01,582.92,3.64,0000 0000 0000 0000 000000
2018-07-22 11:11:47,0.08,0.11,0.00,26.94,30.54,33.17,13.68,46.83,1007.34,2014.02,3365.44,3033.36,3491.37,600.39,583.19,3.69,0000 0000 0000 0000 000000
2018-07-22 11:16:48,0.06,0.12,0.00,26.95,30.55,33.21,13.69,46.98,1007.33,2014.00,3364.10,3032.12,3489.97,600.08,582.81,3.74,0000 0000 0000 0000 000000
2018-07-22 11:21:49,0.04,0.12,0.00,26.96,30.57,33.22,13.65,46.98,1007.29,2014.00,3363.28,3031.58,3489.08,600.27,582.79,3.79,0000 0000 0000 0000 000000
2018-07-22 11:26:51,0.03,0.12,0.00,26.98,30.59,33.28,13.61,46.92,1007.26,2014.00,3362.66,3030.88,3488.39,599.86,582.61,3.84,0000 0000 0000 0000 000000
2018-07-22 11:31:52,0.07,0.12,0.00,26.98,30.60,33.32,13.68,47.09,1007.24,2014.00,3361.32,3029.81,3487.29,600.48,583.18,3.89,0000 0000 0000 0000 000000
2018-07-22 11:36:53,0.09,0.13,0.00,26.99,30.62,33.30,13.63,47.13,1007.15,2013.99,3359.50,3028.46,3485.63,599.95,582.54,3.94,0000 0000 0000 0000 000000
2018-07-22 11:41:55,0.06,0.13,0.00,27.00,30.63,33.33,13.58,46.98,1007.01,2013.96,3358.06,3027.31,3484.36,599.75,582.30,3.99,0000 0000 0000 0000 000000
2018-07-22 11:46:56,0.05,0.13,0.00,27.00,30.65,33.36,13.55,46.94,1006.97,2013.93,3357.05,3026.57,3483.49,599.65,582.15,4.04,0000 0000 0000 0000 000000
2018-07-22 11:51:58,0.06,0.14,0.00,27.00,30.67,33.36,13.65,46.93,1006.94,2013.82,3355.66,3025.49,3482.26,600.03,582.41,4.09,0000 0000 0000 0000 000000
2018-07-22 11:56:59,0.07,0.14,0.00,27.01,30.67,33.39,13.60,46.90,1006.92,2013.90,3354.12,3024.26,3480.87,600.00,582.45,4.14,0000 0000 0000 0000 000000
2018-07-22 12:02:01,0.06,0.15,0.00,27.03,30.70,33.44,13.62,46.87,1006.96,2013.89,3352.79,3023.18,3479.67,600.21,582.69,4.19,0000 0000 0000 0000 000000
2018-07-22 12:07:02,0.05,0.15,0.00,27.03,30.71,33.48,13.61,46.95,1007.12,2013.79,3351.59,3021.98,3478.42,600.00,582.48,4.24,0000 0000 0000 0000 000000
2018-07-22 12:12:03,0.08,0.15,0.00,27.05,30.72,33.48,13.65,47.02,1007.28,2013.67,3350.25,3020.77,3476.91,600.24,582.79,4.29,0000 0000 0000 0000 000000
2018-07-22 12:17:04,0.06,0.16,0.00,27.04,30.73,33.54,13.61,46.94,1007.28,2013.55,3348.53,3019.25,3475.18,599.41,582.12,4.34,0000 0000 0000 0000 000000
2018-07-22 12:22:05,0.07,0.16,0.00,27.05,30.75,33.53,13.64,47.00,1007.26,2013.30,3346.95,3017.80,3473.52,599.99,582.58,4.39,0000 0000 0000 0000 000000
2018-07-22 12:27:07,0.06,0.16,0.00,27.06,30.76,33.59,13.63,47.03,1007.27,2013.11,3345.51,3016.50,3471.98,599.98,582.50,4.44,0000 0000 0000 0000 000000
2018-07-22 12:32:08,0.09,0.17,0.00,27.06,30.77,33.60,13.60,47.02,1007.32,2013.07,3343.68,3014.92,3470.15,600.02,582.58,4.49,0000 0000 0000 0000 000000
2018-07-22 12:37:09,0.15,0.17,0.00,27.07,30.77,33.60,13.57,46.92,1007.25,2013.03,3340.91,3012.73,3467.63,600.18,582.66,4.54,0000 0000 0000 0000 000000
2018-07-22 12:42:10,0.09,0.18,0.00,27.08,30.80,33.64,13.60,46.98,1006.92,2013.00,3338.53,3010.87,3465.46,599.94,582.20,4.59,0000 0000 0000 0000 000000
2018-07-22 12:47:12,0.06,0.18,0.00,27.08,30.80,33.65,13.61,46.81,1006.86,2013.00,3337.24,3009.82,3464.41,599.98,582.27,4.64,0000 0000 0000 0000 000000
2018-07-22 12:52:13,0.08,0.19,0.00,27.08,30.81,33.66,13.60,46.92,1006.85,2013.00,3335.66,3008.63,3462.98,600.16,582.55,4.69,0000 0000 0000 0000 000000
2018-07-22 12:57:14,0.08,0.19,0.00,27.09,30.82,33.69,13.63,46.90,1006.85,2013.00,3333.93,3007.29,3461.32,599.97,582.25,4.74,0000 0000 0000 0000 000000